| time (UTC) | temp F | wind direction | speed MPH | gust MPH | rain 1hr in | rain 24hr in | rain mn in | humidity % | barometer mb |
| 20260504050442 | 55 | 330 | 1.0 | 3.0 | 0.00 | 0.00 | 0.00 | 79 | 993.5 |
| 20260504045922 | 56 | 44 | 4.0 | 5.0 | 0.00 | 0.00 | 0.00 | 80 | 993.5 |
| 20260504045402 | 57 | 64 | 5.0 | 8.0 | 0.00 | 0.00 | 0.00 | 77 | 993.4 |
| 20260504044842 | 57 | 334 | 9.0 | 13.0 | 0.00 | 0.00 | 0.00 | 75 | 993.3 |
| 20260504044325 | 57 | 74 | 3.0 | 8.0 | 0.00 | 0.00 | 0.00 | 76 | 993.2 |
| 20260504043802 | 57 | 318 | 6.0 | 10.0 | 0.00 | 0.00 | 0.00 | 75 | 993.1 |
| 20260504043245 | 57 | 335 | 6.0 | 8.0 | 0.00 | 0.00 | 0.00 | 75 | 993.4 |
| 20260504042722 | 57 | 310 | 10.0 | 15.0 | 0.00 | 0.00 | 0.00 | 75 | 993.3 |
| 20260504042204 | 57 | 326 | 10.0 | 17.0 | 0.00 | 0.00 | 0.00 | 75 | 993.0 |
| 20260504041642 | 57 | 290 | 3.0 | 8.0 | 0.00 | 0.00 | 0.00 | 75 | 993.3 |
| 20260504041122 | 57 | 2 | 7.0 | 10.0 | 0.00 | 0.00 | 0.00 | 75 | 993.2 |
| 20260504040602 | 57 | 13 | 4.0 | 10.0 | 0.00 | 0.00 | 0.00 | 75 | 993.3 |
| 20260504040042 | 56 | 341 | 6.0 | 10.0 | 0.00 | 0.00 | 0.00 | 75 | 993.3 |
| 20260504035522 | 56 | 326 | 5.0 | 8.0 | 0.00 | 0.00 | 0.00 | 75 | 993.1 |
| 20260504035001 | 56 | 23 | 9.0 | 10.0 | 0.00 | 0.00 | 0.00 | 75 | 993.2 |
| 20260504034442 | 56 | 356 | 4.0 | 5.0 | 0.00 | 0.00 | 0.00 | 76 | 993.3 |
| 20260504033928 | 56 | 10 | 6.0 | 10.0 | 0.00 | 0.00 | 0.00 | 76 | 993.1 |
| 20260504033418 | 56 | 317 | 3.0 | 5.0 | 0.00 | 0.00 | 0.00 | 77 | 993.4 |
| 20260504032858 | 56 | 71 | 5.0 | 8.0 | 0.00 | 0.00 | 0.00 | 76 | 993.4 |
| 20260504032338 | 56 | 345 | 6.0 | 10.0 | 0.00 | 0.00 | 0.00 | 76 | 993.4 |
| 20260504031824 | 57 | 342 | 10.0 | 13.0 | 0.00 | 0.00 | 0.00 | 75 | 993.5 |
| 20260504031315 | 57 | 348 | 7.0 | 13.0 | 0.00 | 0.00 | 0.00 | 75 | 993.2 |
| 20260504030756 | 57 | 17 | 5.0 | 5.0 | 0.00 | 0.00 | 0.00 | 76 | 993.4 |
| 20260504030235 | 57 | 351 | 11.0 | 15.0 | 0.00 | 0.00 | 0.00 | 75 | 993.2 |
| 20260504025724 | 57 | 4 | 8.0 | 10.0 | 0.00 | 0.00 | 0.00 | 74 | 993.3 |
| 20260504025210 | 57 | 345 | 8.0 | 15.0 | 0.00 | 0.00 | 0.00 | 75 | 993.6 |
| 20260504024651 | 57 | 1 | 11.0 | 15.0 | 0.00 | 0.00 | 0.00 | 73 | 993.5 |
| 20260504024131 | 59 | 325 | 7.0 | 10.0 | 0.00 | 0.00 | 0.00 | 71 | 993.6 |
| 20260504023624 | 59 | 3 | 8.0 | 10.0 | 0.00 | 0.00 | 0.00 | 73 | 993.5 |
| 20260504023107 | 59 | 10 | 7.0 | 10.0 | 0.00 | 0.00 | 0.00 | 71 | 993.6 |
| 20260504022547 | 58 | 43 | 5.0 | 8.0 | 0.00 | 0.00 | 0.00 | 73 | 993.8 |
| 20260504022026 | 58 | 350 | 8.0 | 13.0 | 0.00 | 0.00 | 0.00 | 73 | 993.8 |
| 20260504021506 | 58 | 335 | 11.0 | 20.0 | 0.00 | 0.00 | 0.00 | 72 | 993.9 |
| 20260504020946 | 59 | 288 | 11.0 | 15.0 | 0.00 | 0.00 | 0.00 | 73 | 994.1 |
| 20260504020427 | 58 | 342 | 7.0 | 15.0 | 0.00 | 0.00 | 0.00 | 76 | 994.0 |
| 20260504015908 | 58 | 320 | 8.0 | 15.0 | 0.00 | 0.00 | 0.00 | 78 | 994.0 |
| 20260504015346 | 57 | 284 | 13.0 | 17.0 | 0.00 | 0.00 | 0.00 | 80 | 994.1 |
| 20260504014824 | 56 | 353 | 9.0 | 15.0 | 0.00 | 0.00 | 0.00 | 82 | 994.1 |
| 20260504014307 | 56 | 298 | 9.0 | 13.0 | 0.00 | 0.00 | 0.00 | 84 | 994.3 |
| 20260504013746 | 55 | 330 | 11.0 | 15.0 | 0.00 | 0.00 | 0.00 | 84 | 994.3 |
| 20260504013226 | 55 | 9 | 6.0 | 10.0 | 0.00 | 0.00 | 0.00 | 83 | 994.2 |
| 20260504012706 | 56 | 338 | 5.0 | 8.0 | 0.00 | 0.00 | 0.00 | 83 | 994.3 |
| 20260504012147 | 56 | 337 | 8.0 | 10.0 | 0.00 | 0.00 | 0.00 | 83 | 994.4 |
| 20260504011626 | 55 | 297 | 7.0 | 10.0 | 0.00 | 0.00 | 0.00 | 84 | 994.4 |
| 20260504011107 | 57 | 37 | 8.0 | 13.0 | 0.00 | 0.00 | 0.00 | 83 | 994.3 |
| 20260504010547 | 56 | 294 | 3.0 | 8.0 | 0.00 | 0.00 | 0.00 | 86 | 994.4 |
| 20260504010026 | 55 | 322 | 10.0 | 15.0 | 0.00 | 0.00 | 0.00 | 85 | 994.1 |
| 20260504005506 | 55 | 278 | 3.0 | 5.0 | 0.00 | 0.00 | 0.00 | 86 | 994.4 |
| 20260504004946 | 55 | 342 | 8.0 | 10.0 | 0.00 | 0.00 | 0.00 | 86 | 994.2 |
| 20260504004426 | 55 | 335 | 12.0 | 17.0 | 0.00 | 0.00 | 0.00 | 87 | 994.3 |
| 20260504003906 | 54 | 324 | 8.0 | 10.0 | 0.00 | 0.00 | 0.00 | 89 | 994.5 |
| 20260504003346 | 53 | 60 | 12.0 | 17.0 | 0.00 | 0.00 | 0.00 | 89 | 994.5 |
| 20260504002826 | 54 | 308 | 6.0 | 10.0 | 0.00 | 0.00 | 0.00 | 88 | 994.6 |
| 20260504002307 | 54 | 68 | 4.0 | 5.0 | 0.00 | 0.00 | 0.00 | 90 | 994.6 |
| 20260504001746 | 53 | 325 | 9.0 | 13.0 | 0.00 | 0.00 | 0.00 | 90 | 994.8 |
| 20260504001226 | 53 | 328 | 4.0 | 8.0 | 0.00 | 0.00 | 0.00 | 90 | 994.8 |
| 20260504000706 | 53 | 1 | 8.0 | 13.0 | 0.00 | 0.00 | 0.00 | 90 | 994.8 |
| 20260504000147 | 53 | 76 | 0.0 | 0.0 | 0.00 | 0.00 | 0.00 | 89 | 994.7 |
| 20260503235626 | 53 | 274 | 6.0 | 13.0 | 0.00 | 0.00 | 0.00 | 89 | 994.8 |
| 20260503235106 | 53 | 310 | 4.0 | 8.0 | 0.00 | 0.00 | 0.00 | 89 | 994.9 |
| 20260503234546 | 53 | 321 | 3.0 | 8.0 | 0.00 | 0.00 | 0.00 | 91 | 994.7 |
| 20260503234025 | 52 | 359 | 8.0 | 10.0 | 0.00 | 0.00 | 0.00 | 91 | 994.8 |
| 20260503233506 | 52 | 316 | 8.0 | 10.0 | 0.00 | 0.00 | 0.00 | 91 | 995.2 |
| 20260503232946 | 52 | 47 | 7.0 | 15.0 | 0.00 | 0.00 | 0.00 | 90 | 995.2 |
| 20260503232426 | 52 | 290 | 5.0 | 8.0 | 0.00 | 0.00 | 0.00 | 90 | 995.1 |
| 20260503231906 | 52 | 348 | 5.0 | 5.0 | 0.00 | 0.00 | 0.00 | 90 | 995.3 |
| 20260503231346 | 53 | 323 | 3.0 | 5.0 | 0.00 | 0.00 | 0.00 | 89 | 995.2 |
| 20260503230826 | 53 | 11 | 4.0 | 8.0 | 0.00 | 0.00 | 0.00 | 90 | 995.2 |
| 20260503230307 | 53 | 320 | 1.0 | 3.0 | 0.00 | 0.00 | 0.00 | 90 | 995.2 |
| 20260503225746 | 53 | 5 | 5.0 | 8.0 | 0.00 | 0.00 | 0.00 | 90 | 995.3 |
| 20260503225226 | 53 | 323 | 5.0 | 8.0 | 0.00 | 0.00 | 0.00 | 90 | 995.1 |
| 20260503224706 | 53 | 349 | 5.0 | 8.0 | 0.00 | 0.00 | 0.00 | 91 | 995.3 |
| 20260503224146 | 53 | 354 | 1.0 | 3.0 | 0.00 | 0.00 | 0.00 | 91 | 995.4 |
| 20260503223626 | 53 | 20 | 9.0 | 13.0 | 0.00 | 0.00 | 0.00 | 91 | 995.1 |
| 20260503223106 | 52 | 329 | 6.0 | 10.0 | 0.00 | 0.00 | 0.00 | 92 | 994.9 |
| 20260503222546 | 52 | 346 | 5.0 | 8.0 | 0.00 | 0.00 | 0.00 | 92 | 994.9 |
| 20260503222025 | 52 | 355 | 6.0 | 8.0 | 0.00 | 0.00 | 0.00 | 92 | 994.7 |
| 20260503221506 | 52 | 358 | 11.0 | 15.0 | 0.00 | 0.00 | 0.00 | 92 | 994.9 |
| 20260503220946 | 52 | 62 | 5.0 | 8.0 | 0.00 | 0.00 | 0.00 | 92 | 994.6 |
| 20260503220431 | 52 | 312 | 4.0 | 8.0 | 0.00 | 0.00 | 0.00 | 92 | 994.7 |
| 20260503215922 | 52 | 13 | 5.0 | 8.0 | 0.00 | 0.00 | 0.00 | 93 | 995.1 |
| 20260503215347 | 52 | 66 | 4.0 | 8.0 | 0.00 | 0.00 | 0.00 | 93 | 994.9 |
| 20260503214827 | 52 | 354 | 1.0 | 5.0 | 0.00 | 0.00 | 0.00 | 93 | 995.0 |
| 20260503214308 | 52 | 353 | 4.0 | 5.0 | 0.00 | 0.00 | 0.00 | 93 | 994.9 |
| 20260503213747 | 52 | 354 | 5.0 | 8.0 | 0.00 | 0.00 | 0.00 | 93 | 995.1 |
| 20260503213227 | 52 | 270 | 7.0 | 10.0 | 0.00 | 0.00 | 0.00 | 93 | 995.1 |
| 20260503212708 | 52 | 16 | 5.0 | 8.0 | 0.00 | 0.00 | 0.00 | 93 | 994.8 |
| 20260503212147 | 52 | 295 | 3.0 | 5.0 | 0.00 | 0.00 | 0.00 | 93 | 994.8 |
| 20260503211627 | 51 | 312 | 8.0 | 13.0 | 0.00 | 0.00 | 0.00 | 93 | 994.8 |
| 20260503211107 | 51 | 70 | 6.0 | 10.0 | 0.00 | 0.00 | 0.00 | 94 | 994.8 |
| 20260503210547 | 51 | 327 | 4.0 | 5.0 | 0.00 | 0.00 | 0.00 | 94 | 994.9 |
| 20260503210027 | 51 | 14 | 6.0 | 8.0 | 0.00 | 0.00 | 0.00 | 95 | 994.5 |
| 20260503205506 | 51 | 2 | 3.0 | 5.0 | 0.00 | 0.00 | 0.00 | 95 | 994.5 |
| 20260503204947 | 51 | 349 | 0.0 | 0.0 | 0.00 | 0.00 | 0.00 | 95 | 994.7 |
| 20260503204427 | 51 | 94 | 2.0 | 3.0 | 0.00 | 0.00 | 0.00 | 95 | 994.7 |
| 20260503203907 | 51 | 303 | 0.0 | 0.0 | 0.00 | 0.00 | 0.00 | 95 | 994.5 |
| 20260503203347 | 51 | 61 | 3.0 | 5.0 | 0.00 | 0.00 | 0.00 | 96 | 994.6 |
| 20260503202827 | 51 | 324 | 3.0 | 5.0 | 0.00 | 0.00 | 0.00 | 96 | 994.6 |
| 20260503202307 | 51 | 37 | 3.0 | 8.0 | 0.00 | 0.00 | 0.00 | 96 | 994.6 |
| 20260503201747 | 51 | 345 | 3.0 | 5.0 | 0.00 | 0.00 | 0.00 | 96 | 994.7 |
| 20260503201227 | 51 | 312 | 6.0 | 8.0 | 0.00 | 0.00 | 0.00 | 96 | 994.5 |
| 20260503200707 | 51 | 339 | 3.0 | 5.0 | 0.00 | 0.00 | 0.00 | 96 | 994.4 |
| 20260503200146 | 51 | 340 | 2.0 | 5.0 | 0.00 | 0.00 | 0.00 | 96 | 994.5 |
| 20260503195626 | 51 | 25 | 0.0 | 0.0 | 0.00 | 0.00 | 0.00 | 96 | 994.7 |
| 20260503195106 | 51 | 317 | 5.0 | 10.0 | 0.00 | 0.00 | 0.00 | 96 | 994.3 |
| 20260503194546 | 51 | 26 | 3.0 | 5.0 | 0.00 | 0.00 | 0.00 | 96 | 994.3 |
| 20260503194025 | 51 | 25 | 3.0 | 5.0 | 0.00 | 0.00 | 0.00 | 96 | 994.2 |
| 20260503193505 | 51 | 319 | 2.0 | 5.0 | 0.00 | 0.00 | 0.00 | 96 | 994.2 |
| 20260503192951 | 51 | 16 | 3.0 | 5.0 | 0.00 | 0.00 | 0.00 | 96 | 994.3 |
| 20260503192426 | 51 | 356 | 4.0 | 5.0 | 0.00 | 0.00 | 0.00 | 96 | 994.4 |
| 20260503191906 | 51 | 257 | 3.0 | 8.0 | 0.00 | 0.00 | 0.00 | 96 | 994.5 |
| 20260503191345 | 51 | 325 | 4.0 | 8.0 | 0.00 | 0.00 | 0.00 | 96 | 994.6 |
| 20260503190826 | 51 | 355 | 4.0 | 5.0 | 0.00 | 0.00 | 0.00 | 96 | 994.7 |
| 20260503190306 | 51 | 349 | 6.0 | 10.0 | 0.00 | 0.00 | 0.00 | 96 | 994.4 |
| 20260503185745 | 51 | 350 | 5.0 | 8.0 | 0.00 | 0.00 | 0.00 | 96 | 994.6 |
| 20260503185226 | 51 | 357 | 4.0 | 8.0 | 0.00 | 0.00 | 0.00 | 96 | 994.5 |
| 20260503184709 | 51 | 42 | 4.0 | 5.0 | 0.00 | 0.00 | 0.00 | 96 | 994.7 |
| 20260503184146 | 51 | 280 | 5.0 | 10.0 | 0.00 | 0.00 | 0.00 | 96 | 994.7 |
| 20260503183626 | 51 | 317 | 7.0 | 13.0 | 0.00 | 0.00 | 0.00 | 95 | 994.8 |
| 20260503183106 | 51 | 6 | 3.0 | 5.0 | 0.00 | 0.00 | 0.00 | 95 | 994.9 |
| 20260503182546 | 51 | 8 | 4.0 | 5.0 | 0.00 | 0.00 | 0.00 | 95 | 994.8 |
| 20260503182025 | 51 | 25 | 4.0 | 8.0 | 0.00 | 0.00 | 0.00 | 95 | 995.0 |
| 20260503181506 | 52 | 109 | 5.0 | 10.0 | 0.00 | 0.00 | 0.00 | 95 | 994.9 |
| 20260503180945 | 52 | 308 | 4.0 | 8.0 | 0.00 | 0.00 | 0.00 | 95 | 994.9 |
| 20260503180426 | 52 | 353 | 4.0 | 5.0 | 0.00 | 0.00 | 0.00 | 95 | 995.0 |
| 20260503175906 | 52 | 34 | 0.0 | 3.0 | 0.00 | 0.00 | 0.00 | 95 | 995.0 |
| 20260503175346 | 52 | 312 | 1.0 | 3.0 | 0.00 | 0.00 | 0.00 | 95 | 995.0 |
| 20260503174826 | 52 | 329 | 3.0 | 5.0 | 0.00 | 0.00 | 0.00 | 95 | 995.1 |
| 20260503174306 | 52 | 319 | 5.0 | 8.0 | 0.00 | 0.00 | 0.00 | 95 | 994.9 |
| 20260503173746 | 52 | 355 | 6.0 | 10.0 | 0.00 | 0.00 | 0.00 | 95 | 995.0 |
| 20260503173226 | 52 | 11 | 3.0 | 5.0 | 0.00 | 0.00 | 0.00 | 95 | 994.9 |
| 20260503172706 | 52 | 15 | 3.0 | 5.0 | 0.00 | 0.00 | 0.00 | 95 | 995.3 |
| 20260503172146 | 52 | 1 | 5.0 | 8.0 | 0.00 | 0.00 | 0.00 | 95 | 995.1 |
| 20260503171626 | 52 | 1 | 3.0 | 5.0 | 0.00 | 0.00 | 0.00 | 95 | 995.2 |
| 20260503171106 | 51 | 46 | 5.0 | 8.0 | 0.00 | 0.00 | 0.00 | 95 | 995.3 |
| 20260503170547 | 51 | 349 | 3.0 | 5.0 | 0.00 | 0.00 | 0.00 | 94 | 995.2 |
| 20260503160146 | 52 | 339 | 3.0 | 5.0 | 0.00 | 0.00 | 0.00 | 94 | 995.5 |
| 20260503150826 | 53 | 353 | 3.0 | 8.0 | 0.00 | 0.00 | 0.00 | 94 | 995.5 |
| 20260503150306 | 53 | 358 | 3.0 | 5.0 | 0.00 | 0.00 | 0.00 | 94 | 995.4 |
| 20260503131106 | 54 | 325 | 2.0 | 5.0 | 0.00 | 0.00 | 1.15 | 93 | 996.1 |
| 20260503130546 | 54 | 346 | 4.0 | 8.0 | 0.00 | 0.00 | 1.15 | 93 | 996.2 |
| 20260503120145 | 54 | 9 | 3.0 | 8.0 | 0.00 | 0.00 | 1.15 | 92 | 996.2 |
| 20260503110825 | 54 | 343 | 0.0 | 0.0 | 0.00 | 0.00 | 1.15 | 91 | 996.6 |
| 20260503110305 | 54 | 347 | 0.0 | 0.0 | 0.00 | 0.00 | 1.15 | 91 | 996.5 |
| 20260503081225 | 53 | 42 | 1.0 | 5.0 | 0.00 | 0.00 | 1.15 | 87 | 994.4 |
| 20260503080705 | 54 | 303 | 2.0 | 5.0 | 0.00 | 0.00 | 1.15 | 87 | 994.4 |
| 20260503080145 | 54 | 27 | 0.0 | 0.0 | 0.00 | 0.00 | 1.15 | 87 | 994.4 |
| 20260503072425 | 54 | 64 | 0.0 | 0.0 | 0.00 | 0.00 | 1.15 | 87 | 994.2 |
| 20260503071904 | 54 | 354 | 4.0 | 5.0 | 0.00 | 0.00 | 1.15 | 88 | 994.2 |
| 20260503071344 | 54 | 292 | 5.0 | 8.0 | 0.00 | 0.00 | 1.15 | 90 | 994.3 |
| 20260503070825 | 53 | 17 | 2.0 | 5.0 | 0.00 | 0.00 | 1.15 | 92 | 994.3 |
| 20260503070305 | 53 | 339 | 3.0 | 5.0 | 0.00 | 0.00 | 1.15 | 95 | 994.2 |